Wetbulb
40.52 42.22 43.75 45.67 46.90 51.66 56.28 58.80 59.76 59.35 59.38 58.73 59.87 61.10 60.17 59.91 60.24 62.19 63.22 62.78 63.14 63.02 63.79 63.79 63.32 63.09 61.81 61.10 60.44 59.42 57.19 56.78 56.20 56.16 56.53 57.06 57.85 57.96 59.07 60.02 60.07 59.60 60.12
38.33 41.10 44.43 48.79 52.84 54.53 56.15 58.17 59.73 59.81 59.50 59.41 59.65 60.05 60.28 61.09 60.64 61.21 62.64 63.71 63.76 62.45 63.12 62.68 61.96 61.89 61.09 60.31 59.92 59.16 57.31 57.42 57.43 55.38 55.50 53.82 55.55 57.85 58.81 59.53 59.40 58.70 58.88
38.36 40.01 45.39 51.40 54.35 55.49 56.16 56.85 58.20 59.13 59.43 59.26 59.48 58.87 59.02 59.16 59.80 60.80 61.61 62.53 63.18 63.47 62.10 62.35 61.94 60.96 61.04 60.09 59.91 59.56 58.84 57.38 57.81 58.04 56.72 53.49 52.57 54.92 56.74 56.93 57.49 57.16 56.83
40.64 47.35 50.52 51.69 53.29 55.06 56.98 58.17 59.25 58.93 59.15 59.61 59.70 58.47 57.53 57.61 58.38 60.24 61.23 61.83 62.77 63.23 63.60 62.57 62.14 61.00 60.70 60.12 60.10 60.21 59.56 59.21 57.42 57.29 59.25 58.25 56.90 54.16 52.65 54.63 54.52 54.83 54.66
46.54 49.39 51.12 53.48 54.17 53.19 53.09 54.81 56.27 58.13 59.20 60.53 58.84 59.45 58.65 59.03 58.29 58.39 58.97 60.75 61.64 62.39 63.02 62.95 62.19 61.57 60.61 60.48 60.42 59.83 59.77 59.81 58.07 58.02 57.60 56.94 56.67 56.08 54.11 52.47 53.04 54.94 54.48
46.29 47.90 49.26 50.92 52.21 53.11 51.55 54.13 53.87 54.84 55.99 56.98 57.80 59.43 59.96 59.21 58.96 59.25 59.47 59.57 60.57 61.11 61.63 62.18 62.24 61.58 60.82 59.65 59.48 59.30 59.38 59.93 58.99 58.94 58.08 57.18 56.26 55.79 54.38 53.66 53.60 53.73 54.90
45.96 45.95 45.91 46.81 48.32 50.64 51.17 53.26 51.82 50.59 52.78 53.83 54.71 54.93 55.78 57.96 59.41 59.42 59.47 59.52 59.66 59.92 60.60 61.64 61.57 61.53 61.33 60.59 60.20 59.71 60.03 59.88 59.78 59.14 59.25 59.16 58.37 57.41 57.53 56.56 54.63 52.51 53.34
44.81 44.97 45.30 45.34 45.55 46.03 46.85 49.13 49.66 49.62 49.88 51.41 52.75 53.24 54.20 56.56 59.39 59.06 59.57 59.96 59.73 59.95 60.61 61.15 61.53 61.37 61.24 61.12 60.29 59.60 59.80 59.58 59.96 59.54 59.53 59.47 59.30 58.05 57.70 57.48 54.74 50.90 49.79
43.28 42.42 42.73 42.71 42.70 43.25 44.01 44.43 46.01 47.01 47.93 49.83 51.34 51.07 52.02 52.49 53.34 54.52 57.11 57.82 58.13 59.88 59.71 59.54 59.42 59.96 60.45 60.45 59.82 59.45 59.46 59.81 59.59 59.68 59.78 59.16 59.19 58.85 58.84 58.28 57.49 55.69 51.81
41.67 42.04 42.13 42.40 42.81 43.30 43.64 44.17 44.95 44.22 45.73 46.90 47.43 48.48 48.79 49.62 50.37 51.08 50.87 51.60 53.19 55.27 58.17 58.60 58.88 59.13 59.47 59.74 59.91 59.58 59.75 59.63 59.59 59.61 59.13 59.20 59.33 58.24 57.90 57.40 56.69 55.53 54.83
41.06 41.25 42.04 42.69 42.92 42.96 42.90 42.77 42.96 42.88 43.13 44.20 44.74 45.00 45.89 46.73 46.85 46.95 47.89 49.10 50.23 50.84 52.14 54.36 56.20 57.39 58.78 59.41 59.30 59.38 59.30 58.65 58.64 58.39 58.26 58.13 58.38 57.95 57.43 57.41 55.85 54.19 52.75
41.18 41.48 41.69 42.05 41.87 41.50 42.13 41.73 41.69 41.43 41.91 42.74 42.99 43.14 43.56 43.94 43.91 43.91 44.32 45.52 45.83 47.69 48.26 49.31 50.97 52.93 54.55 57.33 58.63 58.61 58.71 58.32 57.89 57.87 57.31 57.11 57.05 56.83 56.53 55.43 54.19 53.00 50.55
40.59 40.73 40.54 39.84 39.99 39.86 40.12 40.20 40.52 40.58 40.89 41.63 41.46 41.10 41.04 41.45 41.66 42.15 42.87 43.89 44.09 44.60 45.49 46.52 47.07 48.16 49.66 50.95 52.99 55.18 57.29 58.24 58.32 58.22 57.61 57.46 56.93 56.10 56.48 55.60 54.93 54.22 51.58
37.14 36.63 35.98 36.10 36.18 37.65 37.63 38.04 37.64 39.10 39.48 39.83 39.27 38.68 38.77 39.49 39.94 40.98 41.53 42.11 42.54 42.38 42.66 43.63 44.65 45.50 46.19 47.09 48.28 49.70 51.31 53.39 54.81 56.42 57.41 57.40 56.79 56.06 55.66 54.95 54.69 53.43 51.76
34.21 34.39 33.93 33.28 33.32 34.50 35.55 35.11 36.21 37.24 37.70 37.93 37.15 36.82 37.39 38.09 38.15 38.51 39.48 40.33 40.52 40.55 41.27 41.56 41.77 42.44 44.02 45.65 45.85 46.19 46.63 48.15 50.43 52.62 53.11 53.95 54.00 52.11 54.94 54.45 53.97 52.33 50.74
34.52 34.26 33.79 33.90 33.20 33.11 34.41 33.76 33.76 35.26 34.78 35.31 34.91 35.45 35.38 35.54 35.64 36.23 36.80 37.26 37.72 38.56 39.35 39.53 40.02 40.37 42.57 45.31 47.00 46.81 45.07 45.31 47.04 48.27 50.00 51.04 48.76 49.75 50.80 51.47 51.29 51.73 50.32
34.40 33.23 32.64 32.84 32.65 32.55 34.02 32.55 32.56 33.09 32.63 32.44 33.80 33.51 33.52 33.29 33.61 34.24 34.43 33.79 34.40 35.61 35.94 37.25 38.35 38.93 40.36 44.53 45.21 46.10 45.24 43.59 43.91 45.38 46.14 46.83 47.53 47.62 48.70 49.97 49.88 49.48 50.25
33.48 33.42 32.72 32.66 32.43 32.17 32.80 32.31 32.36 31.18 31.34 31.10 31.66 32.63 32.30 31.84 32.04 31.81 31.56 31.55 32.78 33.20 34.18 34.88 36.51 37.35 38.91 41.95 43.33 44.26 42.86 43.48 42.29 40.73 42.19 44.05 44.62 44.51 45.69 45.99 44.76 46.28 47.56
32.90 33.30 32.79 32.38 31.09 30.19 31.15 30.95 31.02 30.60 30.36 30.28 30.38 31.39 31.66 30.99 30.81 30.35 29.84 30.39 31.67 31.19 32.04 34.23 34.90 34.43 35.51 40.46 40.66 42.03 41.62 40.91 40.70 41.77 41.52 42.36 43.57 45.07 46.38 43.50 41.46 42.12 41.41
33.42 32.39 31.53 30.83 29.46 29.38 29.45 29.60 29.43 29.25 28.97 29.81 30.27 30.87 30.93 30.22 29.41 29.22 28.94 30.04 29.89 31.07 31.84 32.20 32.29 34.44 33.02 38.12 39.96 40.57 40.82 40.90 41.34 42.37 41.32 42.56 42.75 44.42 45.63 43.11 41.38 39.46 39.26
30.02 31.02 29.58 28.80 28.73 28.54 28.24 27.42 27.23 27.04 28.86 29.18 28.99 29.14 29.31 28.90 28.48 28.05 28.17 27.75 27.49 28.09 27.92 29.17 29.60 30.18 32.54 33.35 37.92 38.92 38.61 39.59 40.06 41.05 41.12 41.07 42.93 43.99 44.59 45.54 41.19 40.85 37.89
29.33 29.03 28.18 28.14 28.31 28.24 27.01 25.79 25.24 27.51 27.49 27.03 26.81 26.62 26.74 27.46 28.12 25.84 25.91 25.97 25.78 25.95 26.45 27.08 28.38 30.24 30.40 34.55 35.15 36.83 37.54 39.08 38.45 38.64 40.40 41.43 42.72 43.00 43.76 44.64 42.87 43.07 39.65
28.26 28.11 26.94 26.75 26.60 26.06 25.08 24.21 25.54 26.16 25.73 25.12 24.90 25.24 26.10 26.93 27.22 25.89 25.45 25.85 25.91 25.71 26.44 27.77 27.78 28.81 29.76 29.25 34.47 35.24 36.03 36.70 35.85 38.04 40.25 41.24 42.33 42.85 43.17 43.78 43.61 42.09 34.86
26.51 26.54 25.97 25.22 24.79 25.34 24.90 24.16 24.65 25.01 24.22 22.98 22.94 23.50 23.26 26.24 26.63 26.88 27.10 26.44 26.23 25.20 27.57 27.60 27.38 27.94 28.88 28.16 28.74 30.88 32.88 34.32 33.86 35.48 36.04 38.32 40.80 42.28 41.76 41.85 43.00 39.37 35.15
26.13 26.05 24.64 24.46 24.35 24.63 24.08 24.26 24.69 24.28 23.67 23.37 23.80 23.83 24.97 24.39 25.22 26.31 26.40 27.08 27.72 27.36 27.26 28.62 28.65 29.44 28.74 30.85 33.73 33.70 32.13 32.49 33.75 34.38 33.59 34.80 35.49 36.34 37.08 37.18 38.85 37.72 35.19
24.07 23.62 24.14 23.82 23.35 23.23 23.56 24.29 25.11 24.53 23.62 24.42 24.85 25.02 26.01 25.70 26.17 26.04 26.45 31.58 33.20 34.64 34.46 34.03 32.31 30.92 33.44 34.81 34.18 34.11 34.08 34.37 35.27 32.49 31.47 33.03 34.78 34.76 35.70 35.52 36.13 35.74 35.65
MSLP
1010.85 1010.74 1010.71 1010.38 1010.43 1010.26 1010.32 1010.30 1010.58 1010.73 1011.20 1011.82 1012.18 1012.01 1011.85 1011.93 1012.00 1012.26 1012.27 1012.33 1012.53 1012.37 1012.94 1013.19 1013.49 1013.03 1013.65 1014.28 1014.85 1015.30 1015.59 1016.12 1015.92 1016.59 1016.40 1016.19 1016.09 1015.97 1015.84 1015.77 1015.88 1015.98 1016.04
1010.61 1010.20 1009.90 1009.80 1009.84 1009.66 1009.83 1010.08 1010.32 1010.41 1010.90 1011.33 1011.51 1011.49 1011.69 1011.85 1011.85 1012.04 1011.70 1011.70 1011.87 1012.10 1012.46 1012.46 1012.94 1012.79 1013.38 1013.79 1013.69 1014.29 1015.14 1015.21 1015.51 1015.96 1016.23 1016.34 1016.10 1015.62 1015.43 1015.53 1015.60 1015.76 1015.83
1010.40 1009.75 1009.65 1009.67 1009.69 1009.76 1009.87 1010.10 1010.39 1010.60 1010.84 1011.05 1011.36 1011.61 1011.81 1011.75 1011.81 1011.75 1011.60 1011.43 1011.36 1011.62 1011.95 1012.17 1012.44 1012.57 1012.63 1012.71 1012.99 1013.54 1013.70 1014.19 1014.68 1014.74 1015.37 1015.99 1015.73 1015.41 1015.25 1015.35 1015.59 1015.64 1015.66
1009.92 1009.65 1009.59 1009.65 1009.88 1009.94 1009.95 1010.14 1010.31 1010.61 1010.84 1010.98 1011.23 1011.57 1011.50 1011.60 1011.30 1011.08 1011.08 1010.92 1010.67 1010.95 1011.16 1011.49 1011.96 1011.98 1011.82 1012.12 1012.29 1012.65 1012.91 1013.46 1014.15 1014.64 1014.62 1014.68 1014.65 1015.03 1015.41 1015.42 1015.54 1015.57 1015.80
1010.27 1009.80 1009.83 1010.06 1010.16 1010.24 1010.54 1010.43 1010.62 1010.74 1010.74 1010.92 1011.09 1011.23 1011.37 1011.50 1011.22 1011.25 1011.14 1010.88 1010.60 1010.29 1010.30 1010.86 1010.95 1011.45 1011.30 1011.62 1011.85 1012.28 1012.77 1013.00 1013.45 1013.49 1014.25 1014.60 1014.68 1014.65 1014.88 1015.41 1015.34 1016.04 1015.65
1011.00 1010.57 1010.60 1010.57 1010.76 1010.95 1010.94 1010.84 1011.13 1011.22 1011.18 1011.22 1011.15 1011.02 1011.13 1011.11 1011.10 1011.01 1010.83 1010.62 1010.61 1010.32 1010.10 1010.02 1010.29 1010.58 1011.05 1011.38 1011.74 1011.93 1012.42 1012.74 1012.87 1013.04 1013.30 1013.58 1014.00 1014.46 1014.52 1014.99 1015.04 1015.21 1015.34
1011.62 1011.82 1011.86 1011.77 1011.76 1011.64 1011.53 1011.40 1011.50 1011.92 1011.76 1011.59 1011.46 1011.45 1011.24 1010.74 1010.50 1010.54 1010.24 1010.24 1010.02 1009.71 1009.53 1009.40 1009.53 1009.98 1010.41 1011.04 1011.37 1011.81 1012.06 1012.42 1012.62 1012.81 1012.85 1012.99 1013.27 1013.38 1013.72 1013.98 1014.47 1015.17 1015.19
1012.94 1012.90 1013.02 1012.98 1012.90 1012.73 1012.53 1012.22 1012.22 1012.33 1012.32 1012.16 1011.90 1011.75 1011.42 1010.75 1010.42 1010.33 1010.09 1009.78 1009.41 1009.17 1009.04 1009.00 1009.12 1009.36 1009.79 1010.44 1010.66 1011.22 1011.52 1011.78 1012.04 1012.12 1012.44 1012.47 1012.68 1013.08 1013.24 1013.20 1013.80 1014.69 1014.95
1013.85 1013.76 1013.96 1013.83 1013.99 1013.63 1013.73 1013.32 1013.08 1012.93 1012.66 1012.61 1012.38 1012.17 1011.84 1011.57 1011.18 1010.73 1010.37 1010.06 1009.77 1009.55 1009.09 1009.10 1009.22 1009.43 1009.41 1009.62 1010.02 1010.44 1010.72 1010.95 1011.10 1011.77 1011.77 1011.85 1011.98 1012.17 1012.53 1012.81 1012.88 1013.04 1013.67
1014.64 1014.68 1014.70 1014.78 1014.83 1014.66 1014.55 1014.09 1014.07 1013.82 1013.53 1013.28 1012.69 1012.72 1012.62 1011.94 1011.86 1011.70 1011.28 1010.95 1010.60 1010.00 1009.71 1009.43 1009.50 1009.61 1009.69 1009.53 1009.48 1009.84 1010.32 1010.68 1010.94 1010.92 1010.73 1010.97 1011.16 1011.49 1011.46 1011.81 1011.89 1012.22 1012.56
1015.36 1015.43 1015.28 1015.61 1015.52 1015.38 1015.01 1014.68 1014.80 1013.95 1014.03 1013.54 1013.46 1013.52 1013.35 1012.86 1012.09 1012.01 1012.07 1011.29 1011.30 1010.94 1010.65 1010.22 1009.94 1009.91 1009.54 1009.15 1009.27 1009.41 1009.58 1009.80 1010.15 1010.13 1010.11 1010.50 1010.57 1010.74 1011.17 1011.32 1011.23 1011.46 1012.13
1016.25 1016.25 1016.17 1016.20 1016.20 1016.07 1015.77 1015.78 1014.92 1014.82 1014.36 1014.07 1013.83 1013.74 1013.73 1013.40 1012.71 1013.02 1012.81 1012.46 1011.94 1011.60 1011.36 1010.95 1010.73 1010.36 1009.84 1009.55 1009.04 1009.00 1009.09 1009.11 1009.30 1009.59 1009.51 1009.56 1009.89 1010.07 1010.25 1010.60 1010.69 1010.89 1011.79
1017.01 1017.04 1017.12 1016.98 1016.84 1016.74 1016.58 1016.16 1015.76 1015.53 1015.06 1015.06 1014.93 1014.86 1014.79 1014.13 1013.91 1013.79 1013.12 1012.96 1012.63 1012.17 1012.05 1011.46 1011.24 1010.81 1010.64 1010.11 1009.76 1009.44 1008.88 1008.53 1008.60 1008.67 1008.74 1008.63 1009.08 1009.20 1009.43 1009.80 1010.18 1010.62 1011.20
1017.06 1017.23 1017.40 1017.45 1017.34 1017.28 1017.17 1016.86 1016.40 1016.12 1016.09 1015.89 1015.64 1015.26 1015.27 1014.70 1014.56 1014.16 1013.82 1013.57 1012.94 1012.75 1012.58 1012.08 1011.91 1011.52 1011.02 1010.51 1010.09 1009.74 1009.32 1009.07 1008.88 1008.26 1007.92 1008.17 1008.46 1008.66 1008.86 1009.11 1009.36 1009.87 1010.35
1017.35 1017.39 1017.47 1017.69 1017.67 1017.57 1017.48 1017.32 1017.08 1016.75 1016.44 1016.22 1015.94 1016.08 1015.89 1015.27 1014.79 1014.52 1014.12 1013.72 1013.69 1013.48 1013.00 1012.47 1012.04 1011.70 1011.23 1010.94 1010.51 1010.08 1009.69 1009.39 1009.07 1008.68 1007.95 1007.95 1008.03 1008.13 1008.21 1008.30 1008.68 1008.57 1009.39
1017.23 1017.49 1017.72 1017.76 1017.78 1017.74 1017.73 1017.65 1017.51 1017.22 1017.01 1016.97 1016.65 1016.44 1015.82 1015.32 1015.56 1015.17 1014.82 1014.32 1014.20 1013.88 1013.18 1012.96 1012.92 1012.45 1011.85 1011.51 1011.06 1010.27 1009.82 1009.30 1009.28 1008.88 1008.29 1008.07 1007.91 1007.96 1008.04 1007.93 1007.74 1008.13 1008.67
1017.28 1017.55 1017.83 1018.02 1018.14 1018.11 1017.96 1017.95 1017.80 1017.67 1017.60 1017.45 1017.42 1017.33 1017.06 1016.71 1016.17 1015.41 1015.16 1014.95 1014.87 1014.28 1013.90 1013.43 1013.10 1012.57 1012.08 1011.39 1010.63 1010.14 1009.84 1009.69 1009.06 1008.60 1008.53 1008.56 1008.09 1007.93 1007.87 1007.75 1007.72 1007.70 1007.96
1017.15 1017.47 1017.73 1017.89 1017.95 1017.94 1017.92 1017.95 1017.73 1017.41 1017.33 1017.30 1017.07 1016.70 1016.47 1016.04 1015.70 1015.68 1015.73 1015.36 1015.07 1014.61 1014.12 1013.77 1013.30 1012.83 1012.34 1011.57 1010.76 1010.20 1009.68 1009.24 1008.95 1008.62 1008.51 1008.22 1008.06 1007.98 1007.95 1007.39 1007.50 1007.76 1007.58
1017.23 1017.48 1017.71 1017.95 1018.14 1018.22 1018.21 1018.16 1018.04 1017.94 1017.86 1017.65 1017.37 1016.88 1016.49 1016.25 1016.15 1016.05 1015.92 1015.35 1014.95 1014.61 1014.30 1013.97 1013.51 1012.97 1012.30 1011.65 1010.91 1010.26 1009.66 1009.04 1008.65 1008.42 1008.16 1007.78 1007.81 1007.61 1007.72 1007.44 1007.34 1007.63 1007.84
1017.18 1017.43 1017.72 1017.97 1018.18 1018.13 1018.19 1018.14 1018.09 1017.93 1017.75 1017.40 1017.16 1016.76 1016.58 1016.24 1015.92 1015.64 1015.24 1014.82 1014.63 1014.41 1014.04 1013.70 1013.23 1012.82 1012.27 1011.47 1010.81 1010.17 1009.56 1008.96 1008.57 1007.97 1007.73 1007.58 1007.33 1007.07 1007.16 1007.28 1007.22 1007.64 1007.78
1017.27 1017.43 1017.67 1018.01 1018.19 1018.24 1018.13 1017.90 1017.58 1017.28 1017.01 1016.80 1016.57 1016.36 1016.19 1016.06 1015.82 1015.58 1015.25 1014.88 1014.56 1014.18 1013.93 1013.60 1013.13 1012.71 1012.16 1011.59 1010.99 1010.36 1009.72 1009.19 1008.57 1007.97 1007.27 1006.85 1006.55 1006.44 1006.40 1006.76 1006.76 1007.16 1007.66
1017.28 1017.45 1017.58 1017.61 1017.59 1017.59 1017.70 1018.09 1018.09 1017.71 1017.44 1017.17 1016.83 1016.40 1015.90 1015.52 1015.12 1014.99 1014.68 1014.41 1014.13 1013.79 1013.33 1012.84 1012.30 1011.92 1011.61 1011.34 1010.84 1010.28 1009.79 1009.06 1008.35 1007.65 1007.07 1006.48 1006.09 1005.90 1005.79 1006.06 1006.28 1006.71 1007.33
1017.41 1017.60 1017.90 1018.10 1018.09 1018.05 1017.98 1017.85 1017.34 1017.04 1016.80 1016.63 1016.49 1016.23 1015.83 1015.38 1014.88 1014.52 1014.11 1013.83 1013.40 1013.12 1012.83 1012.52 1012.10 1011.53 1011.09 1010.68 1010.38 1010.03 1009.55 1009.00 1008.34 1007.60 1006.88 1006.28 1005.64 1005.33 1005.18 1005.29 1005.75 1006.31 1007.17
1017.88 1018.04 1018.07 1018.09 1018.07 1017.87 1017.83 1017.88 1017.70 1017.44 1017.30 1017.04 1016.65 1016.21 1015.79 1015.26 1014.68 1014.29 1013.86 1013.43 1013.02 1012.68 1012.29 1012.08 1011.82 1011.35 1010.76 1010.36 1009.92 1009.61 1009.24 1008.88 1008.25 1007.58 1006.88 1006.26 1005.57 1005.00 1004.74 1004.77 1004.98 1005.52 1006.24
1018.08 1018.28 1018.52 1018.62 1018.64 1018.47 1018.29 1018.03 1017.73 1017.50 1017.30 1016.92 1016.46 1015.95 1015.50 1015.01 1014.46 1013.95 1013.52 1012.96 1012.43 1012.14 1011.73 1011.34 1011.09 1010.63 1010.28 1009.84 1009.35 1009.18 1008.94 1008.65 1008.13 1007.33 1006.70 1006.11 1005.44 1004.94 1004.59 1004.49 1004.66 1004.83 1005.79
1018.59 1018.74 1018.87 1018.87 1018.77 1018.54 1018.32 1018.09 1017.76 1017.51 1017.24 1016.86 1016.36 1015.88 1015.27 1014.76 1014.25 1013.57 1012.72 1012.33 1011.73 1011.20 1010.94 1010.68 1010.42 1010.11 1009.71 1009.15 1008.84 1008.67 1008.47 1008.18 1007.74 1007.14 1006.57 1005.94 1005.23 1004.80 1004.48 1004.29 1004.22 1004.57 1005.08
Wind_Speed
8 7 8 9 9 8 7 10 8 7 6 3 4 3 3 2 3 5 7 7 6 6 11 7 10 10 11 14 11 8 7 7 4 2 3 3 5 5 5 4 4 5 6
7 9 8 8 8 8 7 6 8 7 6 3 3 2 2 5 4 5 7 8 7 7 8 10 10 12 10 11 12 12 6 7 6 4 1 2 3 4 5 4 4 6 3
10 9 5 4 4 4 4 5 4 5 5 5 2 1 1 1 2 6 7 9 5 6 7 9 9 11 11 9 10 11 14 9 5 6 5 2 5 1 1 2 3 4 3
8 3 7 7 5 5 5 5 4 2 4 4 4 6 5 5 4 6 7 8 8 7 8 9 12 10 9 9 10 9 8 6 8 2 3 2 3 4 2 1 0 2 4
3 7 8 8 8 5 5 5 5 4 4 1 4 5 6 7 4 3 6 9 8 8 8 10 7 9 6 8 8 7 9 8 5 5 3 2 1 1 2 3 2 3 1
10 10 9 8 6 4 3 5 6 5 5 3 4 4 9 8 6 8 7 6 6 6 8 9 8 5 4 5 4 5 5 7 7 6 5 5 4 5 3 1 2 3 5
12 12 11 10 9 7 5 5 7 6 6 6 6 7 7 7 8 7 7 8 7 5 6 7 9 8 7 5 5 5 6 6 7 8 7 5 5 2 3 3 4 5 2
8 10 11 11 11 11 10 9 8 7 6 6 7 6 7 5 3 3 4 5 5 5 4 8 9 9 9 8 5 3 3 5 6 6 7 5 6 4 5 7 7 3 3
9 12 12 13 11 12 11 11 9 8 9 7 5 7 7 8 7 10 8 6 4 2 2 1 2 2 3 7 6 4 5 6 7 9 8 8 7 6 8 8 9 11 8
11 10 10 11 10 10 8 10 9 8 7 7 8 8 7 9 7 7 9 9 9 11 6 4 3 5 7 7 6 6 7 8 9 9 8 8 7 7 6 9 7 4 8
11 9 10 8 8 8 9 10 7 10 8 7 7 5 6 5 8 9 8 9 8 8 8 8 8 7 6 7 7 8 8 10 10 8 9 10 7 6 7 8 7 5 3
7 8 8 7 7 7 8 7 10 9 10 9 9 9 9 9 10 8 8 8 8 7 7 6 5 6 7 7 8 10 10 11 11 12 10 11 7 10 7 6 5 5 5
4 4 2 3 4 4 4 5 6 8 8 6 7 7 8 9 9 8 8 8 8 9 9 8 8 8 7 7 7 7 7 9 12 12 12 13 11 11 8 9 8 7 5
4 4 3 2 2 3 3 4 5 6 5 5 5 7 7 7 7 7 7 8 8 8 8 8 9 8 8 6 7 8 8 7 6 6 9 10 10 12 11 11 12 9 8
3 2 1 1 2 4 5 5 5 6 6 6 6 5 5 6 7 8 8 7 7 6 6 7 7 8 8 6 8 6 7 9 10 8 5 5 8 12 13 8 9 10 9
4 3 3 4 6 6 5 5 5 6 4 5 6 7 7 6 6 6 7 8 9 9 9 9 7 6 5 12 13 11 7 6 7 9 8 7 8 9 11 13 13 14 11
4 2 3 2 3 3 3 4 5 3 3 2 2 2 2 2 5 7 6 6 6 7 8 8 9 10 9 17 18 16 7 7 7 7 6 8 5 8 7 12 13 13 15
1 3 1 2 3 4 4 4 6 6 6 6 6 6 7 7 7 6 5 5 4 5 5 6 7 7 9 18 19 20 8 7 7 7 7 7 8 6 7 6 6 7 7
2 1 1 2 3 3 3 4 6 6 5 6 7 6 6 6 5 5 5 4 3 4 4 5 7 6 7 15 16 15 9 7 8 7 7 6 8 9 11 6 7 6 3
1 1 1 1 2 4 4 3 5 5 5 6 6 6 6 6 6 6 7 4 5 7 6 6 5 9 7 14 18 14 7 9 8 8 6 12 10 12 13 8 7 7 6
1 1 1 2 3 4 5 2 2 6 5 6 7 7 6 6 6 6 4 5 6 5 5 6 6 6 7 8 17 18 9 7 7 7 7 5 12 14 13 15 8 8 7
2 3 4 5 6 7 7 6 5 5 5 5 5 6 6 6 6 6 6 6 6 6 6 7 7 5 5 11 13 18 18 16 8 7 7 9 13 14 14 13 13 11 10
5 5 5 5 4 4 3 6 7 8 9 9 9 8 9 10 11 10 10 7 5 4 5 5 6 7 6 4 12 16 19 18 12 8 12 19 18 17 14 17 15 15 6
3 2 5 7 7 7 7 5 6 6 6 6 7 7 6 10 8 7 7 7 7 4 5 4 5 6 6 5 4 5 9 15 12 15 11 16 17 15 12 10 11 8 8
4 5 6 6 7 6 6 6 6 6 6 6 6 7 7 7 9 8 7 7 8 6 4 6 5 7 7 8 15 13 9 9 12 17 8 8 5 5 5 4 6 7 7
4 5 5 5 5 6 6 6 6 5 6 8 7 7 8 7 8 8 10 15 17 16 16 16 12 6 15 20 18 18 19 20 21 10 8 8 6 7 7 6 6 6 11
Wind_Direction
253 245 237 233 244 244 197 197 187 183 153 160 196 202 237 244 233 229 246 224 220 213 210 209 218 187 195 199 202 201 207 224 194 137 265 266 236 236 230 225 220 220 218
281 269 246 232 221 219 198 189 199 174 175 177 191 141 188 225 220 233 247 239 219 219 217 203 210 198 197 211 195 189 198 216 173 176 103 242 298 242 222 218 219 224 200
260 272 260 185 191 179 141 152 169 178 186 192 157 224 327 320 200 221 232 234 238 227 211 216 222 208 204 201 195 202 197 206 196 193 155 165 220 174 68 259 252 215 184
267 258 151 135 120 97 86 87 120 152 205 181 186 205 216 227 220 232 235 227 208 224 233 230 223 220 206 198 198 204 202 192 203 177 217 226 162 182 191 34 5 157 173
234 92 90 99 89 80 110 110 91 73 46 212 200 228 245 254 263 251 237 233 223 208 208 233 207 219 200 211 201 197 207 204 186 188 147 174 146 68 116 198 164 270 274
57 53 52 60 63 53 61 72 80 50 45 18 21 344 245 237 245 250 239 239 238 232 227 226 234 207 203 188 186 186 206 223 227 208 195 192 186 204 158 193 190 205 212
46 47 39 33 31 30 31 72 67 44 28 32 37 13 348 300 233 244 241 237 229 213 209 209 216 220 217 215 188 192 198 206 212 214 210 224 227 158 218 211 203 215 236
62 60 47 40 34 34 27 49 60 45 29 30 30 16 357 349 292 273 289 257 239 222 196 215 202 197 188 206 202 204 204 206 229 219 214 212 221 200 231 219 200 215 210
52 60 50 46 28 34 21 33 33 39 29 24 32 30 24 29 10 20 13 354 343 351 334 84 288 204 205 186 189 200 232 250 269 244 220 211 219 214 223 224 222 224 213
49 53 56 45 27 33 18 34 20 36 24 16 29 22 4 37 25 21 24 14 360 7 349 328 287 243 223 212 213 209 210 217 227 233 231 232 227 218 214 218 219 225 227
45 41 52 43 30 14 17 22 344 30 20 34 37 18 12 18 39 29 6 15 359 1 359 352 346 321 286 229 219 221 212 216 228 220 216 226 225 227 223 228 203 181 169
52 44 29 33 41 13 25 7 16 20 19 18 23 22 14 12 37 18 8 3 6 3 353 355 338 335 337 325 245 223 218 216 224 224 218 221 216 218 202 209 195 180 177
101 99 68 25 14 14 24 8 13 16 13 9 21 18 12 14 17 6 9 10 4 9 358 1 351 346 334 331 323 318 295 243 236 231 224 232 220 223 211 206 212 206 188
166 145 116 85 44 31 32 17 21 15 3 18 23 19 5 11 4 0 4 2 6 6 358 360 350 345 334 332 333 330 320 307 295 281 241 232 228 223 217 208 210 204 198
132 129 122 73 46 35 24 19 25 14 356 6 21 17 348 358 3 4 1 4 1 350 346 349 348 341 342 335 334 323 316 311 304 290 267 265 251 228 224 209 220 198 191
169 130 60 31 16 9 12 24 10 359 14 17 9 340 344 4 355 353 350 356 347 344 350 349 337 330 329 319 324 332 319 304 292 291 293 268 249 253 247 226 207 197 192
175 116 63 31 359 357 355 9 351 347 16 1 279 266 259 292 323 335 335 345 331 336 336 333 333 331 326 331 336 330 313 298 293 289 281 281 268 249 238 237 228 217 217
59 33 11 335 356 355 4 344 354 1 5 355 344 343 342 345 347 345 331 323 304 326 326 316 315 318 317 324 329 327 311 300 283 273 273 271 272 257 241 216 207 208 199
122 125 19 353 340 328 314 343 353 349 352 342 327 327 331 326 322 321 296 282 259 297 294 299 304 304 297 313 319 325 310 295 289 276 265 259 267 255 228 212 196 188 175
101 287 319 7 341 323 325 324 308 304 304 307 299 295 293 302 309 310 318 306 316 310 306 289 286 307 305 311 318 316 321 308 293 281 260 260 252 258 238 219 203 205 195
205 194 234 231 230 231 222 241 310 351 329 329 332 328 317 296 284 285 282 284 296 296 291 299 298 291 301 310 321 319 312 308 310 296 279 255 248 252 249 227 202 214 151
360 12 8 5 4 10 16 340 306 270 263 267 282 305 310 300 296 260 265 270 271 282 293 304 308 300 282 309 319 320 318 309 309 302 306 279 259 242 227 230 218 210 165
9 7 4 330 316 329 6 338 320 345 347 346 333 325 318 314 315 316 308 303 286 283 286 289 297 302 289 280 301 319 319 321 316 314 304 307 288 251 236 224 211 191 170
13 359 1 350 336 343 342 325 319 321 317 307 301 296 294 304 304 302 300 297 285 262 272 274 284 288 296 295 292 296 313 315 313 316 305 307 299 259 235 223 219 187 179
7 12 353 332 319 330 329 330 335 346 335 312 305 304 304 299 301 295 289 286 275 247 263 279 268 301 300 294 301 311 312 308 303 304 295 297 283 267 242 225 204 170 179
8 358 342 333 324 334 335 329 327 332 328 325 321 311 313 306 303 303 304 299 290 281 284 291 287 290 298 299 305 310 310 309 308 302 294 288 268 258 251 223 201 187 184